QPF
0.00 0.00 0.00 0.00 0.00 0.00 0.00 0.00 0.00 0.00 0.00 0.00 0.00 0.00 0.00 0.00 0.00 0.01 0.02 0.00 0.00 0.02 0.00 0.00 0.00 0.00 0.00 0.00 0.00 0.00 0.00 0.00 0.01 0.03 0.02 0.01 0.00 0.00 0.00 0.00 0.01 0.16 0.07 0.00 0.00 0.00 0.00 0.00 0.00
0.00 0.00 0.00 0.00 0.00 0.00 0.00 0.00 0.00 0.00 0.00 0.00 0.00 0.00 0.00 0.00 0.00 0.02 0.03 0.01 0.01 0.07 0.02 0.00 0.00 0.00 0.00 0.00 0.00 0.00 0.00 0.00 0.01 0.00 0.00 0.00 0.00 0.00 0.00 0.00 0.00 0.03 0.01 0.00 0.00 0.00 0.00 0.00 0.00
0.00 0.00 0.00 0.00 0.00 0.00 0.00 0.00 0.00 0.00 0.00 0.00 0.00 0.00 0.00 0.00 0.00 0.01 0.00 0.00 0.01 0.10 0.03 0.01 0.00 0.00 0.00 0.00 0.00 0.00 0.00 0.00 0.00 0.00 0.00 0.02 0.02 0.02 0.01 0.02 0.05 0.04 0.01 0.03 0.04 0.00 0.00 0.00 0.00
0.00 0.00 0.00 0.00 0.00 0.00 0.00 0.00 0.00 0.00 0.00 0.00 0.00 0.00 0.00 0.00 0.00 0.00 0.00 0.00 0.01 0.00 0.01 0.01 0.04 0.02 0.00 0.00 0.00 0.01 0.00 0.00 0.00 0.00 0.00 0.00 0.01 0.03 0.07 0.10 0.02 0.02 0.01 0.08 0.09 0.01 0.00 0.00 0.00
0.00 0.00 0.00 0.00 0.00 0.00 0.00 0.00 0.00 0.00 0.00 0.00 0.00 0.00 0.00 0.00 0.00 0.00 0.00 0.00 0.00 0.00 0.00 0.00 0.02 0.07 0.04 0.01 0.00 0.00 0.00 0.00 0.00 0.00 0.00 0.00 0.00 0.03 0.06 0.03 0.01 0.01 0.01 0.07 0.09 0.02 0.00 0.00 0.00
0.00 0.00 0.00 0.00 0.00 0.00 0.00 0.00 0.00 0.00 0.00 0.00 0.00 0.00 0.00 0.00 0.00 0.00 0.00 0.00 0.00 0.00 0.00 0.00 0.00 0.00 0.00 0.00 0.01 0.01 0.01 0.00 0.01 0.00 0.00 0.01 0.01 0.02 0.05 0.08 0.03 0.01 0.00 0.01 0.01 0.00 0.00 0.00 0.00
0.00 0.00 0.00 0.00 0.00 0.00 0.00 0.00 0.00 0.00 0.00 0.00 0.00 0.00 0.00 0.00 0.00 0.00 0.00 0.00 0.00 0.00 0.00 0.00 0.00 0.00 0.00 0.00 0.00 0.01 0.00 0.00 0.00 0.01 0.00 0.00 0.00 0.01 0.01 0.05 0.05 0.06 0.03 0.04 0.01 0.00 0.00 0.00 0.00
0.00 0.00 0.00 0.00 0.00 0.00 0.00 0.00 0.00 0.00 0.00 0.00 0.00 0.00 0.00 0.00 0.00 0.00 0.00 0.00 0.00 0.00 0.00 0.00 0.00 0.00 0.00 0.00 0.00 0.00 0.00 0.00 0.00 0.00 0.00 0.00 0.00 0.00 0.00 0.01 0.01 0.07 0.10 0.03 0.02 0.00 0.00 0.00 0.00
0.00 0.00 0.00 0.00 0.00 0.00 0.00 0.00 0.00 0.00 0.00 0.00 0.00 0.00 0.00 0.00 0.00 0.00 0.00 0.00 0.00 0.00 0.00 0.00 0.00 0.00 0.00 0.00 0.00 0.00 0.00 0.00 0.00 0.00 0.00 0.00 0.00 0.00 0.00 0.00 0.00 0.01 0.08 0.11 0.04 0.00 0.00 0.00 0.00
0.00 0.00 0.00 0.00 0.00 0.00 0.00 0.00 0.00 0.00 0.00 0.00 0.00 0.00 0.00 0.00 0.00 0.00 0.00 0.00 0.00 0.00 0.00 0.00 0.00 0.00 0.00 0.00 0.00 0.00 0.00 0.00 0.00 0.00 0.00 0.00 0.00 0.00 0.00 0.00 0.00 0.01 0.02 0.03 0.03 0.00 0.00 0.00 0.00
0.00 0.00 0.00 0.00 0.00 0.00 0.00 0.00 0.00 0.00 0.00 0.00 0.00 0.00 0.00 0.00 0.00 0.00 0.00 0.00 0.00 0.00 0.00 0.00 0.00 0.00 0.00 0.00 0.00 0.00 0.00 0.00 0.00 0.00 0.00 0.00 0.04 0.08 0.06 0.02 0.00 0.02 0.02 0.00 0.00 0.00 0.00 0.00 0.00
0.00 0.00 0.00 0.00 0.00 0.00 0.00 0.00 0.00 0.00 0.00 0.00 0.00 0.00 0.00 0.00 0.00 0.00 0.00 0.00 0.00 0.00 0.00 0.00 0.00 0.00 0.00 0.00 0.00 0.00 0.00 0.00 0.00 0.00 0.00 0.00 0.00 0.02 0.07 0.12 0.14 0.12 0.05 0.01 0.00 0.00 0.01 0.00 0.00
0.00 0.00 0.00 0.00 0.00 0.00 0.00 0.00 0.00 0.00 0.00 0.00 0.00 0.00 0.00 0.00 0.00 0.00 0.00 0.00 0.00 0.00 0.00 0.00 0.00 0.00 0.00 0.00 0.00 0.00 0.00 0.00 0.00 0.00 0.00 0.00 0.00 0.00 0.01 0.05 0.11 0.13 0.12 0.06 0.01 0.01 0.01 0.00 0.00
0.00 0.00 0.00 0.00 0.00 0.00 0.00 0.00 0.00 0.00 0.00 0.00 0.00 0.00 0.00 0.00 0.00 0.00 0.00 0.00 0.00 0.00 0.00 0.00 0.00 0.00 0.00 0.00 0.00 0.00 0.00 0.00 0.00 0.00 0.00 0.00 0.00 0.00 0.00 0.01 0.02 0.05 0.09 0.09 0.05 0.04 0.03 0.01 0.00
0.00 0.00 0.00 0.00 0.00 0.00 0.00 0.00 0.00 0.00 0.00 0.00 0.00 0.00 0.00 0.00 0.00 0.00 0.00 0.00 0.00 0.00 0.00 0.00 0.00 0.00 0.00 0.00 0.00 0.00 0.00 0.00 0.00 0.00 0.00 0.00 0.00 0.00 0.00 0.00 0.00 0.00 0.00 0.02 0.03 0.02 0.01 0.00 0.00
0.00 0.00 0.00 0.00 0.00 0.00 0.00 0.00 0.00 0.00 0.00 0.00 0.00 0.00 0.00 0.00 0.00 0.00 0.00 0.00 0.00 0.00 0.00 0.00 0.00 0.00 0.00 0.00 0.00 0.00 0.00 0.00 0.00 0.00 0.00 0.00 0.00 0.00 0.00 0.00 0.00 0.00 0.00 0.00 0.02 0.01 0.00 0.00 0.00
0.00 0.00 0.00 0.00 0.00 0.00 0.00 0.00 0.00 0.00 0.00 0.00 0.00 0.00 0.00 0.00 0.00 0.00 0.00 0.00 0.00 0.00 0.00 0.00 0.00 0.00 0.00 0.00 0.00 0.00 0.00 0.00 0.00 0.00 0.00 0.00 0.00 0.00 0.00 0.00 0.00 0.00 0.00 0.00 0.00 0.00 0.00 0.00 0.00
0.00 0.00 0.00 0.00 0.00 0.00 0.00 0.00 0.00 0.00 0.00 0.00 0.00 0.00 0.00 0.00 0.00 0.00 0.00 0.00 0.00 0.00 0.00 0.00 0.00 0.00 0.00 0.00 0.00 0.00 0.00 0.00 0.00 0.00 0.00 0.00 0.00 0.00 0.00 0.00 0.00 0.00 0.00 0.00 0.00 0.00 0.00 0.00 0.00
0.00 0.00 0.00 0.00 0.00 0.00 0.00 0.00 0.00 0.00 0.00 0.00 0.00 0.00 0.00 0.00 0.00 0.00 0.00 0.00 0.00 0.00 0.00 0.00 0.00 0.00 0.00 0.00 0.00 0.00 0.00 0.00 0.00 0.00 0.00 0.00 0.00 0.00 0.00 0.00 0.00 0.00 0.00 0.00 0.00 0.00 0.00 0.00 0.00
0.00 0.00 0.00 0.00 0.00 0.00 0.00 0.00 0.00 0.00 0.00 0.00 0.00 0.00 0.00 0.00 0.00 0.00 0.00 0.00 0.00 0.00 0.00 0.00 0.00 0.00 0.00 0.00 0.00 0.00 0.00 0.00 0.00 0.00 0.00 0.00 0.00 0.00 0.00 0.01 0.00 0.00 0.00 0.00 0.00 0.00 0.00 0.00 0.00
0.00 0.00 0.00 0.00 0.00 0.00 0.00 0.00 0.00 0.00 0.00 0.00 0.00 0.00 0.00 0.00 0.00 0.00 0.00 0.00 0.00 0.00 0.00 0.00 0.00 0.00 0.00 0.00 0.00 0.00 0.00 0.00 0.00 0.00 0.00 0.00 0.00 0.00 0.00 0.02 0.02 0.01 0.00 0.00 0.00 0.00 0.01 0.00 0.01
0.00 0.00 0.00 0.00 0.00 0.00 0.00 0.00 0.00 0.00 0.00 0.00 0.00 0.00 0.00 0.00 0.00 0.00 0.00 0.00 0.00 0.00 0.00 0.00 0.00 0.00 0.00 0.00 0.00 0.00 0.00 0.00 0.00 0.00 0.00 0.00 0.00 0.00 0.00 0.01 0.03 0.01 0.00 0.00 0.00 0.00 0.00 0.01 0.01
0.00 0.00 0.00 0.00 0.00 0.00 0.00 0.00 0.00 0.00 0.00 0.00 0.00 0.00 0.00 0.00 0.00 0.00 0.00 0.00 0.00 0.00 0.00 0.00 0.00 0.00 0.00 0.00 0.00 0.00 0.00 0.00 0.00 0.00 0.00 0.00 0.00 0.00 0.01 0.01 0.03 0.03 0.01 0.00 0.00 0.00 0.00 0.01 0.01
0.00 0.00 0.00 0.00 0.00 0.00 0.00 0.00 0.00 0.00 0.00 0.00 0.00 0.00 0.00 0.00 0.00 0.00 0.00 0.00 0.00 0.00 0.00 0.00 0.00 0.00 0.00 0.00 0.00 0.00 0.00 0.00 0.00 0.00 0.00 0.00 0.00 0.00 0.00 0.02 0.03 0.04 0.05 0.03 0.01 0.00 0.00 0.01 0.01
0.00 0.00 0.00 0.00 0.00 0.00 0.00 0.00 0.00 0.00 0.00 0.00 0.00 0.00 0.00 0.00 0.00 0.00 0.00 0.00 0.00 0.00 0.00 0.00 0.00 0.00 0.00 0.00 0.00 0.00 0.00 0.00 0.00 0.00 0.00 0.00 0.00 0.00 0.00 0.00 0.02 0.03 0.06 0.07 0.04 0.01 0.00 0.00 0.01
0.00 0.00 0.00 0.00 0.00 0.00 0.00 0.00 0.00 0.00 0.00 0.00 0.00 0.00 0.00 0.00 0.00 0.00 0.00 0.00 0.00 0.00 0.00 0.00 0.00 0.00 0.00 0.00 0.00 0.00 0.00 0.00 0.00 0.00 0.00 0.00 0.00 0.00 0.00 0.00 0.01 0.03 0.06 0.07 0.07 0.02 0.01 0.01 0.01
0.00 0.00 0.00 0.00 0.00 0.00 0.00 0.00 0.00 0.00 0.00 0.00 0.00 0.00 0.00 0.00 0.00 0.00 0.00 0.00 0.00 0.00 0.00 0.00 0.00 0.00 0.00 0.00 0.00 0.00 0.00 0.00 0.00 0.00 0.00 0.00 0.00 0.00 0.00 0.00 0.01 0.04 0.06 0.05 0.06 0.04 0.02 0.01 0.01
0.00 0.00 0.00 0.00 0.00 0.00 0.00 0.00 0.00 0.00 0.00 0.00 0.00 0.00 0.00 0.00 0.00 0.00 0.00 0.00 0.00 0.00 0.00 0.00 0.00 0.00 0.00 0.00 0.00 0.00 0.00 0.00 0.00 0.00 0.00 0.00 0.00 0.00 0.00 0.00 0.01 0.04 0.07 0.06 0.04 0.04 0.03 0.02 0.01
0.00 0.00 0.00 0.00 0.00 0.00 0.00 0.00 0.00 0.00 0.00 0.00 0.00 0.00 0.00 0.00 0.00 0.00 0.00 0.00 0.00 0.00 0.00 0.00 0.00 0.00 0.00 0.00 0.00 0.00 0.00 0.00 0.00 0.00 0.00 0.00 0.00 0.00 0.00 0.00 0.02 0.04 0.07 0.07 0.05 0.02 0.02 0.01 0.01
0.00 0.00 0.00 0.00 0.00 0.00 0.00 0.00 0.00 0.00 0.00 0.00 0.00 0.00 0.00 0.00 0.00 0.00 0.00 0.00 0.00 0.00 0.00 0.00 0.00 0.00 0.00 0.00 0.00 0.00 0.00 0.00 0.00 0.00 0.00 0.00 0.00 0.00 0.00 0.01 0.03 0.05 0.06 0.07 0.04 0.04 0.03 0.03 0.01
MSLP
1011.76 1011.34 1011.54 1011.94 1013.32 1013.55 1012.84 1011.60 1010.88 1010.51 1010.40 1010.32 1010.05 1010.15 1011.29 1011.82 1012.34 1013.47 1013.06 1012.67 1012.39 1012.72 1012.91 1013.37 1013.56 1013.80 1013.98 1014.19 1014.39 1014.53 1014.68 1014.81 1014.91 1015.08 1015.22 1015.43 1015.55 1015.71 1015.89 1016.01 1016.08 1016.19 1016.25 1016.35 1016.57 1016.75 1017.01 1017.28 1017.50
1011.74 1011.41 1011.68 1012.65 1013.66 1013.86 1012.91 1012.15 1011.88 1011.14 1010.63 1010.26 1010.50 1010.96 1011.41 1012.59 1012.70 1013.28 1013.24 1012.68 1011.95 1012.45 1012.91 1013.26 1013.58 1013.84 1014.09 1014.28 1014.37 1014.52 1014.63 1014.76 1014.90 1015.12 1015.33 1015.51 1015.63 1015.79 1015.90 1016.10 1016.18 1016.28 1016.31 1016.52 1016.68 1016.95 1017.26 1017.49 1017.70
1011.88 1011.72 1012.49 1013.02 1013.61 1013.62 1013.16 1012.50 1011.77 1011.23 1010.78 1010.80 1011.02 1011.31 1012.03 1012.97 1013.08 1013.59 1013.38 1012.98 1012.59 1012.98 1013.00 1013.39 1013.60 1013.83 1014.12 1014.30 1014.35 1014.48 1014.67 1014.81 1014.95 1015.16 1015.36 1015.55 1015.67 1015.78 1015.92 1016.02 1016.23 1016.37 1016.50 1016.63 1016.78 1017.08 1017.35 1017.61 1017.76
1011.98 1012.34 1013.01 1013.10 1013.50 1013.37 1012.81 1012.34 1011.66 1011.39 1011.18 1011.21 1011.62 1012.34 1012.79 1012.95 1013.21 1013.61 1013.47 1013.40 1013.35 1013.49 1013.45 1013.62 1013.71 1013.92 1014.14 1014.20 1014.36 1014.42 1014.51 1014.61 1014.89 1015.12 1015.34 1015.57 1015.69 1015.80 1015.95 1016.04 1016.18 1016.41 1016.60 1016.76 1016.85 1017.19 1017.45 1017.66 1017.83
1012.23 1012.92 1013.46 1013.38 1013.08 1012.94 1012.55 1012.11 1011.90 1011.81 1011.84 1011.84 1011.91 1013.00 1013.53 1013.84 1013.43 1013.47 1013.64 1013.59 1013.73 1013.82 1013.70 1013.82 1013.90 1013.97 1014.10 1014.13 1014.26 1014.33 1014.46 1014.60 1014.81 1015.03 1015.22 1015.44 1015.62 1015.74 1015.87 1016.08 1016.18 1016.37 1016.52 1016.77 1017.02 1017.28 1017.58 1017.75 1017.88
1012.69 1013.25 1013.75 1013.45 1013.20 1013.04 1012.69 1012.29 1012.22 1012.13 1012.04 1012.20 1012.46 1013.20 1014.11 1014.18 1013.64 1013.87 1013.84 1013.91 1013.94 1014.02 1014.02 1013.97 1014.00 1014.05 1014.12 1014.10 1014.10 1014.21 1014.33 1014.52 1014.68 1014.82 1015.04 1015.24 1015.46 1015.69 1015.83 1016.03 1016.18 1016.29 1016.51 1016.76 1017.02 1017.28 1017.58 1017.77 1017.95
1012.82 1013.65 1013.42 1013.15 1013.06 1012.96 1012.72 1012.30 1012.72 1012.71 1012.57 1012.62 1012.65 1013.42 1014.30 1014.30 1014.09 1013.88 1013.95 1014.05 1014.06 1014.00 1014.05 1014.23 1014.19 1014.15 1014.17 1014.15 1014.12 1014.13 1014.27 1014.39 1014.63 1014.67 1014.90 1015.12 1015.35 1015.62 1015.70 1015.92 1016.09 1016.17 1016.42 1016.69 1016.94 1017.23 1017.53 1017.70 1017.94
1012.74 1013.48 1013.10 1012.82 1012.84 1012.93 1012.73 1012.49 1012.77 1012.92 1012.96 1012.65 1012.61 1013.39 1014.23 1014.19 1014.05 1013.85 1013.95 1014.07 1014.18 1014.23 1014.33 1014.33 1014.34 1014.41 1014.39 1014.33 1014.17 1014.19 1014.26 1014.35 1014.47 1014.68 1014.83 1015.00 1015.23 1015.37 1015.52 1015.75 1015.95 1016.14 1016.38 1016.63 1016.94 1017.21 1017.47 1017.69 1017.89
1012.45 1013.33 1013.38 1012.82 1012.78 1012.96 1012.77 1012.84 1012.94 1012.97 1013.08 1012.87 1012.93 1013.17 1013.58 1013.92 1013.91 1014.04 1014.16 1014.25 1014.35 1014.39 1014.63 1014.60 1014.50 1014.47 1014.56 1014.42 1014.34 1014.26 1014.27 1014.29 1014.32 1014.46 1014.70 1014.94 1015.14 1015.32 1015.43 1015.59 1015.72 1015.94 1016.18 1016.44 1016.75 1017.11 1017.42 1017.70 1017.88
1012.63 1013.35 1013.10 1012.89 1012.80 1012.96 1012.97 1012.98 1013.20 1013.34 1013.33 1013.20 1013.11 1013.29 1013.49 1013.67 1013.88 1014.14 1014.36 1014.50 1014.56 1014.62 1014.68 1014.75 1014.70 1014.68 1014.61 1014.50 1014.56 1014.54 1014.46 1014.36 1014.32 1014.40 1014.63 1014.77 1014.90 1015.05 1015.14 1015.34 1015.55 1015.72 1015.99 1016.27 1016.54 1016.83 1017.18 1017.59 1017.96
1012.47 1013.05 1012.92 1013.38 1012.97 1013.07 1013.25 1013.32 1013.28 1013.48 1013.51 1013.23 1013.39 1013.71 1013.86 1013.95 1013.92 1014.08 1014.37 1014.50 1014.67 1014.76 1014.90 1014.87 1014.88 1014.80 1014.81 1014.82 1014.84 1014.72 1014.58 1014.67 1014.45 1014.30 1014.38 1014.54 1014.70 1014.96 1015.13 1015.26 1015.44 1015.68 1015.90 1016.21 1016.42 1016.75 1016.98 1017.42 1017.80
1012.76 1012.99 1012.99 1013.43 1013.39 1013.46 1013.66 1013.83 1013.75 1013.79 1013.58 1013.33 1013.46 1013.69 1013.79 1013.98 1014.09 1014.30 1014.36 1014.63 1014.72 1014.90 1015.09 1015.14 1015.10 1015.02 1014.91 1014.96 1015.02 1015.00 1014.84 1014.75 1014.74 1014.51 1014.42 1014.54 1014.65 1014.78 1015.04 1015.28 1015.44 1015.52 1015.69 1016.01 1016.23 1016.60 1016.81 1017.08 1017.43
1012.90 1013.12 1013.41 1013.61 1013.66 1013.80 1013.89 1014.08 1014.04 1013.76 1013.54 1013.46 1013.41 1013.60 1013.94 1014.19 1014.19 1014.30 1014.34 1014.60 1014.96 1015.16 1015.32 1015.30 1015.21 1015.14 1015.04 1015.09 1015.12 1015.08 1014.98 1014.85 1014.75 1014.58 1014.49 1014.43 1014.65 1014.82 1014.83 1015.06 1015.31 1015.46 1015.64 1015.77 1015.85 1016.28 1016.66 1017.10 1017.26
1013.30 1013.28 1013.65 1013.74 1013.79 1013.85 1014.08 1014.18 1014.28 1013.28 1013.25 1013.63 1013.51 1013.75 1013.97 1014.22 1014.35 1014.48 1014.76 1015.08 1015.09 1015.34 1015.46 1015.50 1015.37 1015.23 1015.09 1015.25 1015.17 1015.21 1015.08 1014.88 1014.75 1014.69 1014.60 1014.49 1014.51 1014.81 1014.96 1015.20 1015.37 1015.47 1015.57 1015.84 1016.21 1016.53 1016.41 1017.04 1017.22
1013.82 1013.72 1013.86 1013.80 1013.84 1014.00 1014.12 1014.35 1014.02 1013.46 1013.51 1013.77 1013.76 1013.86 1014.04 1014.24 1014.37 1014.73 1014.85 1015.10 1015.21 1015.46 1015.54 1015.55 1015.41 1015.23 1015.28 1015.29 1015.23 1015.22 1015.13 1014.90 1014.85 1014.68 1014.46 1014.36 1014.46 1014.60 1014.73 1015.14 1015.34 1015.46 1015.73 1015.83 1016.04 1016.37 1017.61 1016.25 1017.39
1014.17 1013.97 1014.00 1013.94 1013.91 1014.02 1014.14 1013.92 1013.38 1013.55 1013.70 1013.99 1013.93 1014.10 1014.16 1014.40 1014.57 1014.73 1014.85 1015.13 1015.40 1015.62 1015.68 1015.54 1015.51 1015.54 1015.51 1015.42 1015.28 1015.22 1015.12 1015.06 1014.94 1014.72 1014.52 1014.27 1014.31 1014.36 1014.61 1015.00 1015.28 1015.50 1015.75 1015.88 1016.21 1016.70 1017.20 1017.69 1016.83
1014.31 1014.38 1014.06 1014.02 1013.96 1014.13 1014.27 1014.09 1013.46 1013.52 1013.69 1014.01 1014.03 1014.24 1014.41 1014.66 1014.71 1014.80 1015.00 1015.24 1015.46 1015.51 1015.65 1015.67 1015.67 1015.68 1015.66 1015.64 1015.52 1015.39 1015.13 1015.01 1014.79 1014.65 1014.49 1014.24 1014.20 1014.20 1014.31 1014.65 1014.99 1015.37 1015.67 1016.03 1016.23 1016.63 1016.92 1017.28 1017.29
1014.27 1014.23 1013.79 1013.90 1014.16 1014.25 1014.52 1014.24 1013.87 1013.77 1013.95 1013.93 1014.06 1014.26 1014.62 1014.74 1014.79 1014.87 1015.02 1015.14 1015.20 1015.32 1015.43 1015.40 1015.56 1015.64 1015.63 1015.61 1015.61 1015.54 1015.37 1015.09 1014.81 1014.67 1014.46 1014.08 1013.98 1014.09 1014.03 1014.32 1014.68 1014.98 1015.56 1015.86 1016.43 1016.79 1017.18 1017.30 1017.61
1013.62 1013.80 1013.86 1014.25 1014.41 1014.60 1014.83 1014.72 1013.87 1013.41 1013.55 1013.89 1014.20 1014.32 1014.70 1014.84 1014.86 1015.01 1015.11 1015.16 1015.26 1015.26 1015.36 1015.44 1015.49 1015.45 1015.50 1015.54 1015.72 1015.70 1015.59 1015.21 1014.86 1014.63 1014.35 1014.13 1013.98 1013.86 1014.19 1014.08 1014.44 1014.71 1015.22 1015.57 1015.91 1016.35 1016.85 1017.30 1017.85
1013.79 1013.84 1014.18 1014.62 1014.97 1015.09 1015.18 1014.85 1014.05 1013.55 1013.55 1013.52 1013.85 1014.71 1014.94 1015.00 1015.02 1015.06 1015.15 1015.14 1015.18 1015.41 1015.55 1015.60 1015.62 1015.54 1015.47 1015.47 1015.32 1015.30 1015.13 1014.94 1014.74 1014.37 1014.22 1013.96 1013.74 1013.60 1013.78 1013.97 1014.12 1014.44 1014.98 1015.33 1015.54 1015.86 1016.49 1017.25 1017.34
1013.90 1014.13 1014.41 1015.11 1015.53 1015.75 1015.96 1015.27 1014.40 1013.87 1013.76 1013.82 1014.29 1014.80 1015.21 1015.37 1015.49 1015.46 1015.45 1015.49 1015.58 1015.67 1015.68 1015.72 1015.62 1015.48 1015.33 1015.19 1015.06 1014.96 1014.82 1014.79 1014.76 1014.46 1014.12 1013.79 1013.49 1013.20 1013.24 1013.40 1013.60 1014.10 1014.33 1014.98 1015.14 1015.28 1015.75 1016.62 1017.29
1014.55 1014.55 1015.13 1015.90 1016.88 1017.83 1017.25 1016.97 1015.51 1014.63 1014.50 1014.70 1015.02 1015.30 1015.47 1015.49 1015.36 1015.38 1015.36 1015.49 1015.69 1015.66 1015.68 1015.58 1015.49 1015.27 1015.01 1014.86 1014.90 1014.85 1014.69 1014.75 1014.51 1014.29 1013.88 1013.56 1013.30 1013.15 1012.94 1012.94 1013.05 1013.29 1013.58 1014.24 1014.59 1014.93 1015.35 1015.78 1016.53
1015.42 1015.66 1016.63 1017.54 1018.60 1019.38 1018.68 1018.48 1015.83 1015.24 1015.30 1015.32 1015.59 1015.67 1015.57 1015.52 1015.60 1015.75 1015.79 1015.78 1015.70 1015.70 1015.84 1015.82 1015.48 1015.18 1014.86 1014.69 1014.48 1014.43 1014.20 1013.92 1013.60 1013.57 1013.57 1013.23 1013.05 1012.88 1012.81 1012.70 1012.68 1012.82 1013.06 1013.37 1013.98 1014.42 1014.83 1015.11 1015.46
1015.84 1016.96 1018.23 1019.23 1020.16 1020.64 1018.82 1018.20 1016.50 1015.57 1014.99 1015.55 1015.78 1015.67 1015.71 1015.75 1015.73 1015.78 1015.83 1015.86 1015.93 1015.88 1015.85 1015.67 1015.38 1015.09 1014.69 1014.30 1014.04 1013.83 1013.68 1013.45 1013.23 1013.05 1013.00 1012.89 1012.66 1012.55 1012.40 1012.38 1012.47 1012.34 1012.49 1012.62 1013.08 1013.67 1014.21 1014.76 1014.89
1016.30 1017.69 1019.77 1020.97 1021.49 1020.35 1018.77 1018.40 1016.07 1015.06 1014.65 1015.09 1015.50 1015.61 1015.65 1015.65 1015.70 1015.95 1016.15 1016.01 1016.06 1016.06 1015.87 1015.63 1015.34 1014.91 1014.34 1013.84 1013.62 1013.40 1013.21 1013.16 1012.97 1012.69 1012.50 1012.40 1012.32 1012.09 1011.87 1011.88 1011.90 1011.94 1011.85 1012.00 1012.14 1012.80 1013.47 1014.05 1014.51
1016.68 1017.45 1018.82 1020.09 1021.01 1020.20 1018.99 1017.85 1015.93 1015.33 1014.87 1015.02 1015.15 1015.40 1015.49 1015.57 1015.81 1016.02 1016.06 1016.08 1016.29 1016.12 1015.84 1015.51 1015.19 1014.76 1014.27 1013.77 1013.44 1013.25 1012.96 1012.78 1012.46 1012.11 1011.78 1011.68 1011.60 1011.41 1011.15 1010.98 1011.16 1011.26 1011.16 1011.32 1011.54 1012.03 1012.70 1013.32 1014.02
1016.65 1017.02 1017.57 1019.10 1019.86 1020.01 1018.89 1017.54 1016.46 1015.71 1015.27 1015.13 1015.33 1015.40 1015.59 1015.81 1016.01 1016.10 1015.99 1016.22 1016.26 1016.10 1015.87 1015.50 1014.99 1014.59 1014.16 1013.73 1013.24 1012.91 1012.65 1012.48 1012.31 1011.84 1011.35 1011.07 1010.90 1010.74 1010.55 1010.49 1010.37 1010.52 1010.64 1010.77 1011.09 1011.41 1012.11 1012.84 1013.38
1016.37 1016.67 1017.63 1018.85 1020.12 1020.05 1018.57 1017.22 1015.71 1015.63 1015.47 1015.57 1015.64 1015.64 1015.67 1015.67 1015.78 1015.94 1015.99 1016.15 1016.10 1015.99 1015.70 1015.34 1014.84 1014.47 1014.05 1013.61 1013.16 1012.88 1012.60 1012.35 1011.93 1011.43 1010.72 1010.31 1010.16 1010.00 1009.83 1009.83 1009.86 1009.90 1009.97 1010.16 1010.51 1011.10 1011.68 1012.41 1012.97
1016.40 1016.49 1017.19 1018.13 1019.08 1019.70 1018.97 1016.73 1014.71 1014.77 1015.13 1015.39 1015.48 1015.58 1015.62 1015.74 1015.96 1015.97 1015.95 1016.09 1016.06 1015.88 1015.63 1015.24 1014.85 1014.55 1014.08 1013.63 1013.22 1012.77 1012.35 1011.94 1011.40 1010.83 1010.51 1010.14 1009.72 1009.29 1008.92 1008.92 1009.13 1009.22 1009.33 1009.61 1010.09 1010.64 1011.35 1012.01 1012.64
1015.76 1016.13 1016.75 1017.83 1018.89 1019.23 1018.78 1016.41 1014.29 1014.36 1014.94 1015.14 1015.53 1015.60 1015.78 1015.96 1016.07 1016.05 1016.02 1016.18 1016.06 1015.86 1015.50 1015.00 1014.82 1014.60 1014.19 1013.65 1012.90 1012.34 1011.83 1011.35 1010.94 1010.65 1010.18 1009.73 1009.13 1008.50 1008.21 1008.26 1008.38 1008.41 1008.61 1009.06 1009.74 1010.38 1011.13 1011.86 1012.55
Thickness
5710 5715 5714 5706 5678 5669 5671 5693 5703 5704 5708 5720 5725 5720 5710 5711 5704 5685 5717 5727 5732 5728 5726 5723 5722 5720 5720 5720 5719 5719 5718 5718 5718 5716 5716 5715 5714 5712 5711 5710 5710 5709 5709 5709 5708 5707 5705 5704 5703
5708 5712 5707 5689 5662 5656 5661 5684 5684 5698 5710 5719 5714 5714 5709 5696 5708 5704 5705 5719 5729 5726 5721 5719 5718 5716 5715 5715 5716 5716 5716 5715 5715 5713 5712 5712 5711 5710 5709 5708 5707 5707 5707 5706 5705 5704 5702 5700 5699
5704 5705 5687 5673 5655 5655 5661 5683 5688 5699 5705 5706 5705 5708 5704 5693 5700 5698 5706 5712 5717 5715 5716 5714 5714 5713 5711 5711 5712 5712 5712 5712 5712 5710 5709 5708 5708 5708 5707 5707 5706 5705 5704 5704 5703 5701 5700 5698 5697
5696 5689 5680 5664 5666 5671 5673 5682 5691 5694 5699 5701 5698 5684 5695 5700 5696 5697 5702 5703 5704 5706 5708 5708 5708 5708 5707 5707 5707 5708 5708 5709 5708 5707 5706 5705 5705 5706 5704 5705 5705 5703 5702 5701 5701 5699 5698 5696 5695
5688 5675 5660 5661 5670 5672 5675 5682 5686 5685 5687 5689 5692 5677 5677 5687 5693 5695 5695 5697 5696 5698 5701 5702 5701 5703 5703 5704 5704 5704 5704 5704 5704 5704 5703 5703 5702 5703 5702 5702 5702 5701 5700 5698 5697 5696 5694 5694 5693
5671 5667 5649 5650 5661 5666 5671 5676 5678 5681 5681 5682 5679 5676 5671 5679 5685 5687 5689 5690 5690 5691 5693 5695 5696 5697 5698 5700 5701 5701 5701 5700 5700 5700 5700 5700 5699 5699 5699 5699 5698 5698 5697 5695 5694 5693 5691 5691 5690
5669 5653 5651 5655 5653 5663 5665 5678 5666 5668 5671 5670 5678 5668 5667 5670 5678 5683 5684 5684 5686 5686 5688 5688 5690 5691 5693 5694 5696 5696 5696 5696 5695 5696 5696 5695 5695 5694 5695 5695 5694 5694 5694 5692 5691 5690 5688 5688 5687
5663 5654 5663 5661 5653 5655 5666 5671 5670 5665 5663 5677 5679 5663 5655 5669 5675 5679 5679 5679 5680 5681 5682 5682 5683 5684 5685 5687 5689 5690 5691 5691 5690 5690 5690 5690 5690 5691 5690 5691 5690 5689 5688 5688 5687 5685 5685 5684 5683
5669 5643 5642 5659 5660 5653 5664 5660 5667 5667 5663 5670 5671 5669 5669 5668 5672 5671 5672 5672 5673 5674 5674 5675 5677 5678 5678 5680 5681 5682 5684 5685 5685 5685 5685 5684 5685 5685 5686 5687 5687 5686 5684 5684 5683 5681 5681 5680 5679
5652 5638 5651 5656 5656 5652 5657 5657 5657 5656 5656 5658 5662 5667 5668 5668 5666 5665 5664 5663 5666 5668 5668 5669 5671 5671 5672 5673 5674 5674 5676 5679 5680 5680 5679 5679 5680 5680 5681 5681 5682 5682 5680 5679 5679 5678 5677 5676 5675
5656 5643 5654 5645 5652 5653 5652 5652 5657 5651 5649 5656 5654 5656 5659 5660 5663 5662 5660 5661 5661 5662 5662 5664 5665 5666 5666 5667 5667 5668 5669 5670 5672 5674 5675 5674 5674 5673 5674 5675 5675 5675 5673 5673 5672 5672 5673 5673 5672
5643 5648 5650 5646 5646 5647 5645 5646 5647 5647 5652 5658 5657 5656 5657 5657 5657 5655 5657 5656 5657 5658 5657 5657 5659 5659 5660 5660 5660 5660 5661 5663 5664 5664 5665 5667 5668 5668 5667 5667 5667 5668 5668 5667 5668 5666 5666 5667 5666
5642 5643 5642 5641 5643 5643 5644 5639 5641 5645 5651 5655 5657 5657 5652 5651 5655 5655 5657 5655 5651 5651 5651 5652 5654 5654 5655 5654 5653 5653 5654 5654 5655 5657 5657 5658 5659 5659 5659 5659 5659 5659 5659 5659 5661 5659 5657 5655 5657
5636 5638 5635 5638 5638 5641 5637 5638 5637 5649 5650 5649 5654 5650 5650 5649 5649 5651 5649 5647 5647 5646 5646 5646 5647 5648 5649 5648 5647 5646 5646 5647 5647 5648 5648 5649 5651 5649 5648 5648 5647 5648 5649 5649 5649 5647 5648 5644 5643
5627 5627 5629 5631 5635 5634 5635 5629 5631 5646 5645 5646 5645 5644 5643 5645 5647 5642 5644 5642 5641 5640 5639 5639 5641 5641 5641 5640 5639 5639 5639 5639 5639 5640 5640 5641 5642 5642 5640 5637 5637 5639 5637 5639 5640 5639 5627 5632 5630
5618 5623 5616 5626 5630 5631 5631 5628 5641 5640 5639 5637 5639 5638 5639 5639 5639 5639 5638 5637 5635 5633 5632 5633 5633 5632 5631 5631 5631 5630 5630 5628 5628 5629 5630 5631 5632 5632 5631 5628 5625 5625 5626 5626 5626 5623 5620 5617 5625
5612 5595 5612 5617 5627 5625 5626 5625 5639 5637 5636 5632 5634 5633 5633 5631 5633 5634 5631 5629 5628 5627 5625 5624 5623 5622 5621 5620 5620 5620 5620 5619 5620 5619 5619 5620 5622 5621 5620 5618 5616 5612 5612 5612 5612 5611 5610 5611 5616
5594 5601 5616 5614 5617 5620 5617 5615 5625 5631 5630 5629 5628 5627 5626 5625 5625 5626 5625 5624 5624 5621 5619 5619 5616 5614 5613 5612 5611 5610 5609 5609 5609 5608 5607 5609 5609 5609 5610 5607 5604 5602 5600 5598 5597 5596 5593 5596 5601
5616 5612 5614 5604 5612 5611 5608 5609 5618 5628 5632 5624 5621 5622 5619 5619 5620 5618 5616 5616 5615 5613 5611 5609 5607 5606 5605 5604 5601 5600 5597 5597 5597 5596 5595 5595 5596 5597 5596 5596 5592 5590 5589 5587 5587 5587 5584 5584 5585
5606 5605 5603 5602 5604 5605 5604 5605 5611 5619 5624 5625 5619 5612 5611 5612 5610 5611 5609 5608 5606 5602 5600 5599 5597 5595 5594 5593 5593 5592 5590 5588 5586 5586 5586 5585 5584 5583 5584 5585 5581 5579 5576 5576 5575 5575 5573 5570 5573
5598 5595 5601 5596 5599 5598 5594 5595 5613 5617 5617 5615 5610 5606 5605 5601 5600 5600 5600 5599 5594 5591 5590 5589 5587 5585 5585 5584 5584 5582 5581 5578 5574 5573 5574 5575 5576 5575 5572 5573 5572 5568 5567 5563 5564 5564 5563 5560 5558
5584 5595 5594 5591 5571 5557 5581 5557 5592 5602 5603 5601 5597 5593 5592 5593 5594 5594 5592 5589 5586 5584 5581 5579 5578 5577 5578 5576 5574 5572 5569 5565 5563 5564 5564 5565 5566 5566 5565 5562 5559 5559 5559 5555 5554 5552 5550 5551 5550
5575 5578 5574 5570 5541 5533 5563 5522 5574 5587 5588 5588 5582 5584 5588 5589 5585 5581 5579 5578 5576 5572 5568 5566 5567 5568 5568 5566 5565 5562 5560 5559 5560 5557 5555 5556 5556 5555 5554 5553 5551 5548 5549 5548 5545 5542 5541 5543 5544
5566 5560 5549 5534 5517 5482 5555 5547 5564 5574 5583 5579 5579 5581 5581 5579 5575 5573 5570 5567 5563 5559 5558 5559 5559 5558 5558 5558 5556 5554 5552 5552 5551 5550 5547 5545 5545 5544 5544 5542 5541 5541 5540 5540 5539 5535 5532 5532 5535
5557 5541 5496 5506 5473 5515 5559 5536 5563 5579 5578 5576 5572 5574 5574 5571 5567 5563 5557 5554 5553 5550 5549 5549 5550 5550 5551 5550 5547 5544 5541 5539 5537 5536 5536 5534 5534 5532 5533 5532 5532 5532 5533 5532 5533 5530 5526 5525 5525
5541 5541 5515 5485 5503 5516 5549 5540 5559 5568 5567 5567 5567 5566 5565 5562 5557 5552 5548 5545 5540 5540 5540 5539 5540 5542 5539 5538 5535 5532 5530 5527 5526 5527 5527 5525 5523 5523 5522 5524 5523 5523 5525 5525 5524 5523 5521 5519 5516
5537 5529 5543 5518 5528 5491 5518 5544 5552 5556 5557 5558 5557 5557 5555 5552 5546 5543 5540 5534 5531 5530 5529 5529 5533 5532 5528 5527 5525 5523 5520 5516 5514 5513 5513 5514 5513 5513 5513 5512 5514 5514 5514 5515 5514 5514 5513 5511 5510
5531 5537 5517 5500 5489 5501 5501 5537 5521 5543 5547 5546 5546 5547 5546 5546 5540 5533 5529 5526 5524 5522 5521 5522 5524 5522 5519 5515 5513 5510 5506 5503 5502 5503 5505 5506 5503 5502 5503 5502 5502 5503 5504 5505 5504 5503 5502 5501 5502
5514 5517 5523 5506 5487 5457 5473 5517 5551 5549 5543 5539 5540 5540 5540 5536 5526 5525 5521 5516 5515 5514 5513 5514 5514 5510 5506 5503 5500 5497 5495 5492 5492 5493 5492 5491 5492 5494 5496 5495 5493 5495 5496 5496 5495 5494 5492 5493 5495
5516 5515 5513 5468 5488 5461 5459 5496 5548 5541 5533 5530 5529 5531 5533 5523 5515 5513 5512 5507 5507 5507 5507 5509 5503 5498 5495 5491 5491 5489 5486 5484 5483 5481 5481 5482 5485 5488 5490 5489 5487 5488 5491 5490 5487 5484 5484 5486 5485